M I D A S
Marine Information and Data Acquisition System
Tripno 645 of the Zeeleeuw from 2004-02-10 07:25:09 to 2004-02-10 16:58:56
Back to CruiseResearch ActivitiesStationsMapUnderway DataData graphs

EquipmentUnitsComments
TimeDGPSUTC
LatitudeDGPSDM.mWGS84
LongitudeDGPSDM.mWGS84
SpeedMeteo Stationm/sRelative wind speed
DirectionMeteo StationdegRelative wind direction
TemperatureMeteo Stationdeg CelciusAir temperature
PressureMeteo StationPaAtmospheric pressure
HumidityMeteo Station%Relative humidity
Missing or incorrect values are displayed as -999
Metereological data collected by the RV Zeeleeuw from 2004-02-10 07:25:09 to 2004-02-10 16:58:56
Time Latitude Longitude Speed Direction Temperature Pressure Humidity
2004-02-10 07:26 51°13.606 2°56.05 4.2 147 0.5 103320 79
2004-02-10 07:27 51°13.639 2°55.948 2.7 144 0.5 103320 79
2004-02-10 07:28 51°13.669 2°55.831 4.2 167 0.5 103310 79
2004-02-10 07:29 51°13.682 2°55.785 3.2 155 0.6 103310 79
2004-02-10 07:30 51°13.687 2°55.769 1.1 230 0.6 103310 79
2004-02-10 07:31 51°13.755 2°55.701 2.7 322 0.7 103300 79
2004-02-10 07:32 51°13.868 2°55.602 3.2 356 0.8 103310 79
2004-02-10 07:33 51°13.993 2°55.512 2.7 339 0.8 103310 79
2004-02-10 07:34 51°14.126 2°55.415 3.7 345 0.9 103310 79
2004-02-10 07:35 51°14.268 2°55.251 4.9 344 1 103300 79
2004-02-10 07:36 51°14.398 2°55.011 7.6 319 1.4 103280 80
2004-02-10 07:37 51°14.515 2°54.748 7.1 319 1.5 103270 79
2004-02-10 07:38 51°14.595 2°54.531 7.3 306 1.6 103270 78
2004-02-10 07:39 51°14.7 2°54.285 9.1 319 1.9 103250 80
2004-02-10 07:40 51°14.823 2°53.984 9.5 327 2.1 103240 80
2004-02-10 07:41 51°14.929 2°53.655 10.8 324 2.3 103220 80
2004-02-10 07:42 51°15.044 2°53.327 10.5 320 2.6 103220 80
2004-02-10 07:43 51°15.158 2°52.994 10.8 327 2.8 103220 80
2004-02-10 07:44 51°15.261 2°52.646 12.1 331 3.2 103210 80
2004-02-10 07:45 51°15.358 2°52.294 13.4 334 3.4 103210 80
2004-02-10 07:46 51°15.405 2°51.917 12.6 333 3.6 103210 79
2004-02-10 07:47 51°15.43 2°51.531 13.2 339 3.7 103210 79
2004-02-10 07:48 51°15.457 2°51.146 12.7 339 3.9 103230 79
2004-02-10 07:49 51°15.486 2°50.762 14 341 4.1 103210 79
2004-02-10 07:50 51°15.514 2°50.378 13.5 338 4.1 103210 77
2004-02-10 07:51 51°15.544 2°49.995 15 332 4.2 103220 77
2004-02-10 07:52 51°15.572 2°49.611 13.5 341 4.2 103220 76
2004-02-10 07:53 51°15.601 2°49.228 13.5 334 4.3 103230 77
2004-02-10 07:54 51°15.631 2°48.849 13.5 333 4.4 103220 78
2004-02-10 07:55 51°15.662 2°48.467 13 346 4.4 103210 77
2004-02-10 07:56 51°15.692 2°48.079 13.6 346 4.6 103220 78
2004-02-10 07:57 51°15.723 2°47.691 12.5 346 4.5 103220 76
2004-02-10 07:58 51°15.752 2°47.299 14.1 347 4.6 103220 77
2004-02-10 07:59 51°15.784 2°46.903 14.8 346 4.5 103220 71
2004-02-10 08:00 51°15.813 2°46.523 13.8 356 4.6 103210 68
2004-02-10 08:01 51°15.842 2°46.138 13.8 356 4.6 103220 65
2004-02-10 08:02 51°15.871 2°45.753 13.7 353 4.7 103220 67
2004-02-10 08:03 51°15.9 2°45.37 14.5 349 4.8 103230 65
2004-02-10 08:04 51°15.943 2°44.99 14.9 349 4.9 103230 65
2004-02-10 08:05 51°16.036 2°44.643 12.5 340 4.9 103270 65
2004-02-10 08:06 51°16.177 2°44.34 12.4 338 4.9 103260 65
2004-02-10 08:07 51°16.341 2°44.06 13.5 331 4.9 103260 65
2004-02-10 08:08 51°16.51 2°43.788 12.6 330 4.9 103260 64
2004-02-10 08:09 51°16.682 2°43.527 11.8 327 4.9 103250 64
2004-02-10 08:10 51°16.86 2°43.279 12.2 332 4.9 103250 64
2004-02-10 08:11 51°17.039 2°43.026 11.4 336 5 103250 64
2004-02-10 08:12 51°17.214 2°42.774 12 336 5 103250 64
2004-02-10 08:13 51°17.405 2°42.526 13.2 331 5 103240 63
2004-02-10 08:14 51°17.604 2°42.303 12.5 325 5 103240 64
2004-02-10 08:15 51°17.797 2°42.088 12.6 326 5 103240 65
2004-02-10 08:16 51°18.012 2°41.958 9.9 321 5 103260 63
2004-02-10 08:17 51°18.23 2°41.844 10.5 318 5 103250 64
2004-02-10 08:18 51°18.45 2°41.724 11.3 320 5 103260 64
2004-02-10 08:19 51°18.671 2°41.599 9.5 314 5 103240 63
2004-02-10 08:20 51°18.897 2°41.551 8.6 43 5.1 103250 64
2004-02-10 08:21 51°19.114 2°41.529 8.2 293 5.1 103250 64
2004-02-10 08:22 51°19.198 2°41.536 6.1 247 5.1 103270 63
2004-02-10 08:23 51°19.203 2°41.526 6 244 5.1 103260 61
2004-02-10 08:24 51°19.208 2°41.519 5.3 246 5.1 103260 61
2004-02-10 08:25 51°19.215 2°41.509 5.3 251 5.1 103260 63
2004-02-10 08:26 51°19.221 2°41.495 4.3 256 5.1 103260 62
2004-02-10 08:27 51°19.226 2°41.48 4.4 255 5.2 103260 65
2004-02-10 08:28 51°19.231 2°41.467 4.6 254 5.2 103260 63
2004-02-10 08:29 51°19.266 2°41.506 4.3 153 5.1 103270 62
2004-02-10 08:30 51°19.21 2°41.568 9 50 5.2 103260 62
2004-02-10 08:31 51°19.141 2°41.424 11.2 345 5.2 103260 62
2004-02-10 08:32 51°19.172 2°41.16 12.4 341 5.2 103240 62
2004-02-10 08:33 51°19.217 2°40.853 11 333 5.2 103260 63
2004-02-10 08:34 51°19.268 2°40.667 10.2 299 5.2 103250 62
2004-02-10 08:35 51°19.309 2°40.612 5.6 249 5.3 103260 64
2004-02-10 08:36 51°19.322 2°40.601 7 224 5.3 103270 64
2004-02-10 08:37 51°19.34 2°40.607 6.3 225 5.3 103270 61
2004-02-10 08:38 51°19.354 2°40.627 3.2 196 5.3 103270 62
2004-02-10 08:39 51°19.354 2°40.655 5.8 153 5.4 103270 63
2004-02-10 08:40 51°19.35 2°40.684 5.9 137 5.3 103260 61
2004-02-10 08:41 51°19.335 2°40.703 7.7 123 5.3 103250 60
2004-02-10 08:42 51°19.312 2°40.705 7.6 100 5.3 103260 62
2004-02-10 08:43 51°19.29 2°40.694 7.1 90 5.3 103260 64
2004-02-10 08:44 51°19.271 2°40.681 7.9 104 5.3 103260 62
2004-02-10 08:45 51°19.251 2°40.671 7.1 107 5.3 103260 61
2004-02-10 08:46 51°19.232 2°40.659 7.5 126 5.3 103260 63
2004-02-10 08:47 51°19.214 2°40.657 8.3 118 5.3 103260 62
2004-02-10 08:48 51°19.19 2°40.649 7.8 83 5.3 103260 62
2004-02-10 08:49 51°19.162 2°40.629 7.2 57 5.4 103260 66
2004-02-10 08:50 51°19.122 2°40.534 9.1 339 5.4 103260 63
2004-02-10 08:51 51°19.186 2°40.438 4.3 246 5.4 103250 64
2004-02-10 08:52 51°19.241 2°40.556 2.6 161 5.4 103260 64
2004-02-10 08:53 51°19.291 2°40.656 5.1 212 5.4 103260 61
2004-02-10 08:54 51°19.311 2°40.658 7.1 240 5.4 103260 61
2004-02-10 08:55 51°19.321 2°40.64 6.8 245 5.4 103260 63
2004-02-10 08:56 51°19.328 2°40.614 6.5 242 5.4 103260 64
2004-02-10 08:57 51°19.343 2°40.592 6.8 241 5.3 103260 63
2004-02-10 08:58 51°19.364 2°40.579 6.4 226 5.3 103250 61
2004-02-10 08:59 51°19.383 2°40.57 7.1 226 5.3 103260 63
2004-02-10 09:00 51°19.399 2°40.559 7.1 240 5.4 103250 64
2004-02-10 09:01 51°19.413 2°40.545 6.1 237 5.4 103250 64
2004-02-10 09:02 51°19.434 2°40.525 6.9 261 5.4 103260 65
2004-02-10 09:03 51°19.473 2°40.429 10.2 342 5.4 103260 64
2004-02-10 09:04 51°19.424 2°40.318 9.5 66 5.4 103250 62
2004-02-10 09:05 51°19.326 2°40.324 9.5 54 5.4 103210 64
2004-02-10 09:06 51°19.212 2°40.311 7.9 62 5.4 103220 63
2004-02-10 09:07 51°19.155 2°40.357 6.1 129 5.4 103220 63
2004-02-10 09:08 51°19.149 2°40.372 7.1 176 5.3 103240 62
2004-02-10 09:09 51°19.154 2°40.381 4.3 196 5.4 103250 64
2004-02-10 09:10 51°19.162 2°40.393 3.9 179 5.6 103250 63
2004-02-10 09:11 51°19.171 2°40.403 4.2 184 5.8 103250 62
2004-02-10 09:12 51°19.18 2°40.412 4.1 187 5.9 103250 60
2004-02-10 09:13 51°19.188 2°40.418 3.4 190 6 103250 60
2004-02-10 09:14 51°19.197 2°40.422 5.2 200 6.2 103260 62
2004-02-10 09:15 51°19.205 2°40.424 4.8 203 6 103250 58
2004-02-10 09:16 51°19.213 2°40.422 5.6 219 5.8 103250 62
2004-02-10 09:17 51°19.222 2°40.414 7.7 227 5.7 103250 61
2004-02-10 09:18 51°19.23 2°40.401 6.1 245 5.5 103250 60
2004-02-10 09:19 51°19.238 2°40.383 6.8 239 5.6 103250 64
2004-02-10 09:20 51°19.244 2°40.362 6.8 234 5.5 103250 64
2004-02-10 09:21 51°19.248 2°40.339 5.1 257 5.6 103250 67
2004-02-10 09:22 51°19.273 2°40.275 7.7 332 5.5 103230 64
2004-02-10 09:23 51°19.229 2°40.162 9.7 61 5.5 103230 64
2004-02-10 09:24 51°19.111 2°40.226 7.5 77 5.5 103220 62
2004-02-10 09:25 51°18.951 2°40.345 7.2 75 5.5 103220 63
2004-02-10 09:26 51°18.783 2°40.464 8.4 72 5.5 103220 64
2004-02-10 09:27 51°18.679 2°40.574 6.9 114 5.5 103240 64
2004-02-10 09:28 51°18.618 2°40.658 6.6 130 5.5 103250 64
2004-02-10 09:29 51°18.603 2°40.676 7.5 156 5.5 103230 64
2004-02-10 09:30 51°18.594 2°40.69 6.7 158 5.4 103260 62
2004-02-10 09:31 51°18.591 2°40.707 6.9 166 5.5 103260 63
2004-02-10 09:32 51°18.596 2°40.721 7.2 207 5.5 103260 63
2004-02-10 09:33 51°18.61 2°40.722 8 235 5.5 103260 62
2004-02-10 09:34 51°18.624 2°40.711 6.1 246 5.5 103250 63
2004-02-10 09:35 51°18.633 2°40.693 6.4 249 5.5 103260 64
2004-02-10 09:36 51°18.643 2°40.673 5.7 256 5.6 103260 66
2004-02-10 09:37 51°18.656 2°40.653 6.2 246 5.5 103260 65
2004-02-10 09:38 51°18.673 2°40.64 7.6 229 5.6 103250 66
2004-02-10 09:39 51°18.687 2°40.642 5.3 189 5.6 103250 66
2004-02-10 09:40 51°18.695 2°40.654 5.7 204 5.7 103250 67
2004-02-10 09:41 51°18.7 2°40.664 4.4 197 5.9 103250 65
2004-02-10 09:42 51°18.705 2°40.671 6.8 208 5.9 103260 62
2004-02-10 09:43 51°18.716 2°40.676 7.5 229 5.8 103260 65
2004-02-10 09:44 51°18.754 2°40.635 10 306 5.7 103240 66
2004-02-10 09:45 51°18.756 2°40.517 10.5 12 5.7 103230 67
2004-02-10 09:46 51°18.7 2°40.361 11.2 12 5.7 103230 65
2004-02-10 09:47 51°18.668 2°40.278 9.3 39 5.6 103230 64
2004-02-10 09:48 51°18.657 2°40.257 7.7 79 5.6 103230 65
2004-02-10 09:49 51°18.645 2°40.243 8.6 104 5.6 103230 67
2004-02-10 09:50 51°18.612 2°40.287 5.7 140 5.6 103220 65
2004-02-10 09:51 51°18.613 2°40.422 5.5 149 5.6 103230 68
2004-02-10 09:52 51°18.615 2°40.528 5.2 156 5.6 103240 66
2004-02-10 09:53 51°18.611 2°40.55 5.9 179 5.6 103240 67
2004-02-10 09:54 51°18.608 2°40.566 8 152 5.7 103240 67
2004-02-10 09:55 51°18.596 2°40.582 8.3 136 5.6 103240 66
2004-02-10 09:56 51°18.575 2°40.589 9.1 112 5.6 103240 67
2004-02-10 09:57 51°18.527 2°40.644 7 136 5.7 103220 67
2004-02-10 09:58 51°18.517 2°40.734 6.9 154 5.6 103250 65
2004-02-10 09:59 51°18.5 2°40.753 7.4 129 5.6 103230 66
2004-02-10 10:00 51°18.478 2°40.758 7.6 128 5.6 103220 66
2004-02-10 10:01 51°18.452 2°40.825 5.9 166 5.7 103230 67
2004-02-10 10:02 51°18.442 2°40.917 6.4 139 5.7 103230 68
2004-02-10 10:03 51°18.427 2°40.96 8.5 115 5.7 103220 69
2004-02-10 10:04 51°18.409 2°40.951 8.5 116 5.7 103230 68
2004-02-10 10:05 51°18.389 2°40.936 8.4 102 5.6 103220 69
2004-02-10 10:06 51°18.356 2°40.994 6.9 149 5.6 103220 70
2004-02-10 10:07 51°18.347 2°41.113 7.1 132 5.6 103230 71
2004-02-10 10:08 51°18.319 2°41.171 8.3 135 5.7 103220 71
2004-02-10 10:09 51°18.297 2°41.168 8.7 113 5.7 103220 69
2004-02-10 10:10 51°18.273 2°41.161 9.5 106 5.6 103220 69
2004-02-10 10:11 51°18.241 2°41.198 5.2 152 5.5 103220 68
2004-02-10 10:12 51°18.257 2°41.319 6.2 168 5.5 103230 69
2004-02-10 10:13 51°18.256 2°41.403 7.6 137 5.6 103240 70
2004-02-10 10:14 51°18.237 2°41.415 8.1 134 5.7 103210 70
2004-02-10 10:15 51°18.214 2°41.417 8.7 128 5.7 103220 71
2004-02-10 10:16 51°18.175 2°41.421 8.9 69 5.7 103210 72
2004-02-10 10:17 51°18.093 2°41.332 10 334 5.7 103210 71
2004-02-10 10:18 51°18.078 2°41.243 10.6 276 5.6 103220 71
2004-02-10 10:19 51°18.066 2°41.218 6.5 262 5.6 103230 72
2004-02-10 10:20 51°18.054 2°41.196 8.4 244 5.6 103220 72
2004-02-10 10:21 51°18.044 2°41.173 6.5 256 5.5 103230 72
2004-02-10 10:22 51°18.037 2°41.149 10.8 271 5.5 103230 73
2004-02-10 10:23 51°18.038 2°41.083 9.3 227 5.5 103230 73
2004-02-10 10:24 51°18.031 2°40.963 11.2 331 5.5 103220 73
2004-02-10 10:25 51°18.001 2°40.825 10 359 5.5 103220 71
2004-02-10 10:26 51°17.94 2°40.694 10.7 20 5.6 103240 71
2004-02-10 10:27 51°17.879 2°40.558 12.2 18 5.6 103230 68
2004-02-10 10:28 51°17.824 2°40.407 11.5 13 5.6 103230 69
2004-02-10 10:29 51°17.77 2°40.245 13.6 346 5.6 103220 68
2004-02-10 10:30 51°17.835 2°40.138 7.4 238 5.7 103200 69
2004-02-10 10:31 51°17.873 2°40.282 2.9 193 5.7 103220 69
2004-02-10 10:32 51°17.936 2°40.448 4.1 215 5.7 103220 67
2004-02-10 10:33 51°17.991 2°40.586 3.3 208 5.7 103220 67
2004-02-10 10:34 51°18.037 2°40.713 2.6 207 5.7 103220 68
2004-02-10 10:35 51°18.078 2°40.834 4 186 6 103220 67
2004-02-10 10:36 51°18.116 2°40.955 5.3 205 6.1 103220 66
2004-02-10 10:37 51°18.153 2°41.076 7.7 213 5.9 103230 66
2004-02-10 10:38 51°18.197 2°41.131 7.8 260 5.9 103230 67
2004-02-10 10:39 51°18.232 2°41.052 9.5 293 5.9 103220 67
2004-02-10 10:40 51°18.22 2°41.025 10.6 284 5.9 103210 68
2004-02-10 10:41 51°18.209 2°41.004 10 272 5.9 103220 68
2004-02-10 10:42 51°18.208 2°40.976 11.9 290 5.9 103210 69
2004-02-10 10:43 51°18.262 2°40.842 9.7 306 5.8 103200 67
2004-02-10 10:44 51°18.274 2°40.772 10.5 263 5.9 103200 69
2004-02-10 10:45 51°18.256 2°40.753 8.3 259 5.8 103200 67
2004-02-10 10:46 51°18.242 2°40.733 7.2 257 5.8 103200 68
2004-02-10 10:47 51°18.229 2°40.714 8.7 265 5.8 103190 69
2004-02-10 10:48 51°18.284 2°40.647 11.1 293 5.8 103200 68
2004-02-10 10:49 51°18.369 2°40.615 7.7 245 5.8 103200 68
2004-02-10 10:50 51°18.382 2°40.605 8 208 5.7 103190 67
2004-02-10 10:51 51°18.386 2°40.599 6.7 245 5.7 103190 66
2004-02-10 10:52 51°18.424 2°40.555 10.2 291 5.8 103190 67
2004-02-10 10:53 51°18.477 2°40.447 10.4 302 5.8 103170 68
2004-02-10 10:54 51°18.488 2°40.38 8.1 294 5.8 103190 68
2004-02-10 10:55 51°18.484 2°40.346 11.4 277 5.9 103180 69
2004-02-10 10:56 51°18.486 2°40.315 11.8 270 5.9 103170 68
2004-02-10 10:57 51°18.523 2°40.258 11.2 279 5.8 103170 68
2004-02-10 10:58 51°18.57 2°40.187 9.7 273 5.8 103180 67
2004-02-10 10:59 51°18.569 2°40.16 7 262 5.9 103170 70
2004-02-10 11:00 51°18.561 2°40.145 9.6 270 5.9 103180 71
2004-02-10 11:01 51°18.556 2°40.129 12.1 268 6 103170 72
2004-02-10 11:02 51°18.568 2°40.058 10.2 326 5.9 103160 69
2004-02-10 11:03 51°18.527 2°39.957 12.6 53 5.9 103150 69
2004-02-10 11:04 51°18.464 2°39.999 8.2 151 5.9 103130 68
2004-02-10 11:05 51°18.428 2°40.201 8.1 119 5.9 103150 68
2004-02-10 11:06 51°18.391 2°40.344 7.3 155 5.8 103160 68
2004-02-10 11:07 51°18.381 2°40.437 7.9 139 5.8 103150 68
2004-02-10 11:08 51°18.359 2°40.451 11.2 120 5.9 103120 69
2004-02-10 11:09 51°18.334 2°40.45 8 116 5.9 103150 69
2004-02-10 11:10 51°18.297 2°40.476 8.6 153 5.9 103150 69
2004-02-10 11:11 51°18.31 2°40.532 9.1 232 6 103160 69
2004-02-10 11:12 51°18.32 2°40.532 8.4 244 5.9 103160 69
2004-02-10 11:13 51°18.326 2°40.529 6.9 215 5.9 103160 69
2004-02-10 11:14 51°18.328 2°40.563 6.5 142 6 103150 70
2004-02-10 11:15 51°18.287 2°40.61 9.5 115 6 103140 69
2004-02-10 11:16 51°18.254 2°40.623 8.9 114 6 103140 69
2004-02-10 11:17 51°18.233 2°40.615 10 112 5.9 103140 68
2004-02-10 11:18 51°18.205 2°40.613 8.8 105 6 103130 69
2004-02-10 11:19 51°18.174 2°40.662 7.6 174 6 103130 69
2004-02-10 11:20 51°18.213 2°40.719 7.6 227 6 103140 68
2004-02-10 11:21 51°18.241 2°40.734 8.6 228 6 103140 68
2004-02-10 11:22 51°18.246 2°40.721 9.1 234 6 103140 69
2004-02-10 11:23 51°18.254 2°40.703 9.4 237 6 103130 68
2004-02-10 11:24 51°18.274 2°40.744 7.1 141 6 103140 69
2004-02-10 11:25 51°18.203 2°40.784 12.7 51 6.1 103110 69
2004-02-10 11:26 51°18.144 2°40.657 11.7 335 6 103130 67
2004-02-10 11:27 51°18.189 2°40.569 7.9 256 6 103130 68
2004-02-10 11:28 51°18.202 2°40.55 6.9 252 6 103140 67
2004-02-10 11:29 51°18.212 2°40.527 11.1 270 6 103120 68
2004-02-10 11:30 51°18.231 2°40.484 11.3 280 6 103140 68
2004-02-10 11:31 51°18.276 2°40.408 11.4 296 6 103130 67
2004-02-10 11:32 51°18.294 2°40.359 10.8 272 6 103130 67
2004-02-10 11:33 51°18.293 2°40.329 12.4 273 6.1 103140 69
2004-02-10 11:34 51°18.301 2°40.298 10.7 279 6.1 103130 69
2004-02-10 11:35 51°18.307 2°40.269 8.8 275 6.1 103120 69
2004-02-10 11:36 51°18.308 2°40.246 9.1 286 6.1 103130 69
2004-02-10 11:37 51°18.307 2°40.227 11.2 286 6.1 103120 69
2004-02-10 11:38 51°18.304 2°40.212 10.8 278 6.1 103120 68
2004-02-10 11:39 51°18.301 2°40.196 11.9 270 6.1 103120 71
2004-02-10 11:40 51°18.299 2°40.183 11.8 262 6.1 103110 67
2004-02-10 11:41 51°18.296 2°40.172 11.7 265 6 103110 67
2004-02-10 11:42 51°18.291 2°40.162 10.9 261 6 103110 67
2004-02-10 11:43 51°18.288 2°40.154 8.9 274 6 103100 66
2004-02-10 11:44 51°18.283 2°40.145 13.7 270 6.1 103120 69
2004-02-10 11:45 51°18.279 2°40.138 13.5 267 6 103110 66
2004-02-10 11:46 51°18.275 2°40.131 14.1 264 6 103110 67
2004-02-10 11:47 51°18.273 2°40.123 7.3 253 6.1 103100 69
2004-02-10 11:48 51°18.27 2°40.116 13 267 6.1 103090 69
2004-02-10 11:49 51°18.267 2°40.107 11.4 261 6 103100 68
2004-02-10 11:50 51°18.267 2°40.095 13.1 266 6.1 103110 70
2004-02-10 11:51 51°18.276 2°40.08 9.5 258 6 103110 70
2004-02-10 11:52 51°18.289 2°40.066 6.6 251 6.1 103090 71
2004-02-10 11:53 51°18.304 2°40.053 10.8 245 6.1 103110 72
2004-02-10 11:54 51°18.321 2°40.044 9.2 249 6 103090 69
2004-02-10 11:55 51°18.338 2°40.037 7.7 250 6.1 103090 71
2004-02-10 11:56 51°18.355 2°40.032 8.2 252 6.1 103100 72
2004-02-10 11:57 51°18.378 2°40.04 9.8 228 6.1 103090 71
2004-02-10 11:58 51°18.382 2°40.119 11.1 128 6.1 103090 70
2004-02-10 11:59 51°18.322 2°40.156 12 94 6 103070 70
2004-02-10 12:00 51°18.271 2°40.167 13.1 91 6.1 103070 72
2004-02-10 12:01 51°18.246 2°40.168 11 95 6 103070 70
2004-02-10 12:02 51°18.225 2°40.165 11.9 90 6.1 103070 73
2004-02-10 12:03 51°18.202 2°40.165 11.5 97 6.1 103080 71
2004-02-10 12:04 51°18.174 2°40.167 12.6 101 6.1 103080 71
2004-02-10 12:05 51°18.142 2°40.181 10 121 6.1 103080 70
2004-02-10 12:06 51°18.111 2°40.224 9.5 165 6.1 103090 69
2004-02-10 12:07 51°18.124 2°40.276 7 247 6.1 103100 70
2004-02-10 12:08 51°18.166 2°40.267 11.3 293 6.1 103100 70
2004-02-10 12:09 51°18.208 2°40.197 11.4 312 6.1 103100 71
2004-02-10 12:10 51°18.26 2°40.135 10.7 262 6.1 103110 70
2004-02-10 12:11 51°18.289 2°40.144 11.7 225 6.2 103100 73
2004-02-10 12:12 51°18.294 2°40.162 9.8 235 6.1 103120 69
2004-02-10 12:13 51°18.301 2°40.174 9.5 244 6.1 103090 70
2004-02-10 12:14 51°18.306 2°40.178 8.4 249 6.1 103090 70
2004-02-10 12:15 51°18.31 2°40.18 8.5 258 6.2 103090 71
2004-02-10 12:16 51°18.338 2°40.244 7.4 158 6.2 103090 71
2004-02-10 12:17 51°18.255 2°40.302 9.5 71 6.2 103060 68
2004-02-10 12:18 51°18.211 2°40.288 12 94 6.2 103060 70
2004-02-10 12:19 51°18.2 2°40.291 11.8 111 6.2 103070 69
2004-02-10 12:20 51°18.176 2°40.313 7.9 138 6.2 103070 69
2004-02-10 12:21 51°18.17 2°40.388 7.1 205 6.2 103080 70
2004-02-10 12:22 51°18.171 2°40.41 10.6 217 6.2 103080 69
2004-02-10 12:23 51°18.177 2°40.43 10.8 225 6.1 103080 67
2004-02-10 12:24 51°18.189 2°40.477 9 165 6.2 103070 69
2004-02-10 12:25 51°18.146 2°40.543 13 92 6.3 103030 70
2004-02-10 12:26 51°18.117 2°40.55 12.3 84 6.2 103030 69
2004-02-10 12:27 51°18.147 2°40.543 12.5 125 6.2 103030 68
2004-02-10 12:28 51°18.153 2°40.535 10.3 123 6.2 103030 68
2004-02-10 12:29 51°18.121 2°40.562 10.9 101 6.2 103040 69
2004-02-10 12:30 51°18.071 2°40.608 8.5 128 6.2 103040 69
2004-02-10 12:31 51°18.054 2°40.627 10.9 110 6.3 103030 70
2004-02-10 12:32 51°18.027 2°40.642 10.3 88 6.3 103050 70
2004-02-10 12:33 51°17.987 2°40.64 13.7 44 6.3 103030 69
2004-02-10 12:34 51°17.961 2°40.544 14.7 314 6.2 103040 67
2004-02-10 12:35 51°18.03 2°40.487 11.6 295 6.3 103000 69
2004-02-10 12:36 51°18.065 2°40.45 11.2 291 6.3 103030 68
2004-02-10 12:37 51°18.072 2°40.452 12.2 294 6.3 103010 68
2004-02-10 12:38 51°18.073 2°40.465 11.2 289 6.2 103010 67
2004-02-10 12:39 51°18.086 2°40.47 13.4 308 6.2 102990 66
2004-02-10 12:40 51°18.114 2°40.357 14.5 325 6.2 102970 66
2004-02-10 12:41 51°18.151 2°40.245 13.9 322 6.2 102980 68
2004-02-10 12:42 51°18.164 2°40.223 12.5 307 6.3 102990 68
2004-02-10 12:43 51°18.17 2°40.232 11.8 287 6.3 102990 69
2004-02-10 12:44 51°18.196 2°40.209 13.8 332 6.3 102990 69
2004-02-10 12:45 51°18.225 2°40.085 13.4 315 6.3 102970 69
2004-02-10 12:46 51°18.27 2°40.037 12 323 6.3 102980 69
2004-02-10 12:47 51°18.275 2°40.049 12.2 300 6.3 102970 69
2004-02-10 12:48 51°18.287 2°40.02 13.3 3 6.2 102960 69
2004-02-10 12:49 51°18.27 2°39.992 9.9 46 6.2 102980 67
2004-02-10 12:50 51°18.266 2°40.021 11.1 91 6.2 102980 70
2004-02-10 12:51 51°18.256 2°40.049 10.1 99 6.3 102990 71
2004-02-10 12:52 51°18.202 2°40.046 14.4 29 6.3 102960 69
2004-02-10 12:53 51°18.178 2°39.961 12.7 347 6.2 102980 68
2004-02-10 12:54 51°18.184 2°39.948 10.5 227 6.2 102960 68
2004-02-10 12:55 51°18.193 2°39.962 13.3 312 6.2 102970 69
2004-02-10 12:56 51°18.208 2°39.949 12.9 354 6.2 102960 69
2004-02-10 12:57 51°18.168 2°39.921 14 95 6.2 102920 68
2004-02-10 12:58 51°18.116 2°40.022 10.9 158 6.2 102980 68
2004-02-10 12:59 51°18.114 2°40.051 12.6 158 6.1 102950 69
2004-02-10 13:00 51°18.119 2°40.047 10.8 180 6.1 102970 70
2004-02-10 13:01 51°18.119 2°40.074 9.6 168 6.2 102990 70
2004-02-10 13:02 51°18.115 2°40.128 9 149 6.2 102990 70
2004-02-10 13:03 51°18.11 2°40.182 13.5 139 6.3 102960 71
2004-02-10 13:04 51°18.111 2°40.215 10.9 124 6.2 102950 69
2004-02-10 13:05 51°18.102 2°40.252 12.1 105 6.2 102950 70
2004-02-10 13:06 51°18.086 2°40.29 12.1 93 6.2 102950 69
2004-02-10 13:07 51°18.069 2°40.323 8.4 78 6.2 102950 70
2004-02-10 13:08 51°18.059 2°40.357 11.7 76 6.2 102950 70
2004-02-10 13:09 51°18.024 2°40.347 13.8 2 6.1 102930 69
2004-02-10 13:10 51°18.059 2°40.256 13.5 43 6.1 102930 69
2004-02-10 13:11 51°18.097 2°40.195 13.1 354 6.2 102940 71
2004-02-10 13:12 51°18.084 2°40.161 12.2 26 6.1 102960 66
2004-02-10 13:13 51°18.073 2°40.19 11.5 62 6.1 102940 68
2004-02-10 13:14 51°18.067 2°40.239 12.6 99 6.1 102940 69
2004-02-10 13:15 51°18.06 2°40.285 9 94 6.1 102950 70
2004-02-10 13:16 51°18.041 2°40.335 13.6 90 6.2 102940 70
2004-02-10 13:17 51°18.016 2°40.381 10.7 89 6.2 102940 70
2004-02-10 13:18 51°17.994 2°40.427 10 81 6.2 102940 68
2004-02-10 13:19 51°17.961 2°40.451 13.1 23 6.1 102930 68
2004-02-10 13:20 51°17.964 2°40.385 11.6 314 6.2 102930 70
2004-02-10 13:21 51°18.037 2°40.298 12.7 329 6.2 102910 69
2004-02-10 13:22 51°18.059 2°40.265 10 341 6.2 102910 68
2004-02-10 13:23 51°18.066 2°40.288 11.5 358 6.2 102940 68
2004-02-10 13:24 51°18.071 2°40.338 9.9 343 6.2 102940 67
2004-02-10 13:25 51°18.072 2°40.373 12.1 24 6.2 102940 67
2004-02-10 13:26 51°18.03 2°40.388 12.4 37 6.2 102890 67
2004-02-10 13:27 51°18.001 2°40.38 11.5 12 6.2 102920 66
2004-02-10 13:28 51°17.994 2°40.407 10.5 14 6.2 102930 68
2004-02-10 13:29 51°17.993 2°40.457 10.4 29 6.2 102930 67
2004-02-10 13:30 51°17.96 2°40.476 12 37 6.2 102870 67
2004-02-10 13:31 51°17.942 2°40.509 8.8 45 6.2 102900 66
2004-02-10 13:32 51°17.937 2°40.564 10.5 66 6.2 102900 66
2004-02-10 13:33 51°17.939 2°40.627 11 98 6.2 102890 67
2004-02-10 13:34 51°17.937 2°40.687 10.5 95 6.2 102900 68
2004-02-10 13:35 51°17.905 2°40.735 12.5 39 6.2 102880 68
2004-02-10 13:36 51°17.899 2°40.66 12.4 332 6.3 102890 69
2004-02-10 13:37 51°17.937 2°40.555 12.5 341 6.3 102880 68
2004-02-10 13:38 51°17.958 2°40.466 11.5 331 6.3 102890 69
2004-02-10 13:39 51°17.981 2°40.466 12.5 227 6.4 102890 69
2004-02-10 13:40 51°18 2°40.507 11.5 297 6.3 102900 67
2004-02-10 13:41 51°18.022 2°40.534 12.1 333 6.3 102890 67
2004-02-10 13:42 51°18.009 2°40.486 13.7 2 6.2 102890 66
2004-02-10 13:43 51°17.956 2°40.366 15.3 13 6.3 102870 66
2004-02-10 13:44 51°17.943 2°40.291 14.1 357 6.3 102890 66
2004-02-10 13:45 51°17.94 2°40.266 11.8 352 6.3 102890 66
2004-02-10 13:46 51°17.949 2°40.293 10.9 338 6.3 102890 66
2004-02-10 13:47 51°17.963 2°40.342 10.6 324 6.3 102890 65
2004-02-10 13:48 51°17.984 2°40.383 10.7 327 6.4 102880 67
2004-02-10 13:49 51°17.98 2°40.335 13.5 359 6.4 102870 68
2004-02-10 13:50 51°18.003 2°40.189 14.3 345 6.4 102850 69
2004-02-10 13:51 51°18.027 2°40.072 13.2 326 6.4 102860 67
2004-02-10 13:52 51°18.052 2°40.081 10.5 324 6.4 102880 68
2004-02-10 13:53 51°18.072 2°40.117 11.1 332 6.4 102880 68
2004-02-10 13:54 51°18.089 2°40.14 13 360 6.4 102880 67
2004-02-10 13:55 51°18.076 2°40.065 12.7 343 6.4 102860 69
2004-02-10 13:56 51°18.104 2°39.923 15.4 344 6.5 102850 69
2004-02-10 13:57 51°18.133 2°39.858 11 338 6.4 102850 66
2004-02-10 13:58 51°18.149 2°39.875 9.5 358 6.4 102870 66
2004-02-10 13:59 51°18.162 2°39.911 10.7 10 6.5 102880 68
2004-02-10 14:00 51°18.144 2°39.942 13.3 59 6.5 102840 69
2004-02-10 14:01 51°18.097 2°39.908 13.6 351 6.4 102840 69
2004-02-10 14:02 51°18.059 2°39.811 12.9 31 6.4 102840 68
2004-02-10 14:03 51°18.027 2°39.81 9.6 20 6.5 102840 70
2004-02-10 14:04 51°18.029 2°39.868 10.5 26 6.4 102870 67
2004-02-10 14:05 51°18.036 2°39.939 12.3 53 6.5 102850 67
2004-02-10 14:06 51°18.023 2°39.993 12.5 30 6.5 102840 67
2004-02-10 14:07 51°17.999 2°39.916 14.2 3 6.4 102830 65
2004-02-10 14:08 51°17.985 2°39.877 12 39 6.4 102840 66
2004-02-10 14:09 51°17.973 2°39.916 10.5 50 6.5 102840 68
2004-02-10 14:10 51°17.975 2°39.981 11.6 59 6.5 102840 69
2004-02-10 14:11 51°17.964 2°40.024 10.6 19 6.5 102840 69
2004-02-10 14:12 51°17.963 2°40.038 8.7 2 6.5 102850 69
2004-02-10 14:13 51°17.972 2°40.076 11.6 4 6.5 102850 69
2004-02-10 14:14 51°17.986 2°40.132 10.2 13 6.5 102860 67
2004-02-10 14:15 51°17.968 2°40.155 14.4 18 6.5 102820 68
2004-02-10 14:16 51°17.922 2°40.12 14.5 28 6.5 102830 68
2004-02-10 14:17 51°17.902 2°40.126 10.6 19 6.5 102830 67
2004-02-10 14:18 51°17.901 2°40.164 11.1 31 6.6 102840 70
2004-02-10 14:19 51°17.91 2°40.235 9.7 51 6.6 102820 69
2004-02-10 14:20 51°17.88 2°40.256 13.6 16 6.6 102790 70
2004-02-10 14:21 51°17.871 2°40.202 10.9 12 6.5 102820 68
2004-02-10 14:22 51°17.873 2°40.236 9.5 25 6.6 102840 70
2004-02-10 14:23 51°17.879 2°40.3 10.9 58 6.6 102830 69
2004-02-10 14:24 51°17.849 2°40.339 11.8 21 6.6 102800 68
2004-02-10 14:25 51°17.816 2°40.331 11.3 13 6.6 102810 68
2004-02-10 14:26 51°17.819 2°40.371 10.8 357 6.6 102820 69
2004-02-10 14:27 51°17.83 2°40.436 8.8 357 6.7 102830 70
2004-02-10 14:28 51°17.83 2°40.4 13.2 355 6.7 102800 70
2004-02-10 14:29 51°17.803 2°40.234 16.6 2 6.7 102790 69
2004-02-10 14:30 51°17.787 2°40.097 13.4 10 6.7 102800 68
2004-02-10 14:31 51°17.779 2°40.121 9.6 32 6.7 102810 68
2004-02-10 14:32 51°17.781 2°40.179 10.5 56 6.7 102810 69
2004-02-10 14:33 51°17.787 2°40.249 11 83 6.6 102800 68
2004-02-10 14:34 51°17.798 2°40.321 11.1 106 6.6 102790 68
2004-02-10 14:35 51°17.803 2°40.395 11.9 99 6.7 102800 70
2004-02-10 14:36 51°17.777 2°40.454 14.7 31 6.7 102790 70
2004-02-10 14:37 51°17.772 2°40.357 16.2 339 6.6 102770 68
2004-02-10 14:38 51°17.793 2°40.18 14.1 318 6.7 102770 69
2004-02-10 14:39 51°17.874 2°40.085 13.3 340 6.7 102770 69
2004-02-10 14:40 51°17.9 2°39.981 14.2 339 6.7 102790 69
2004-02-10 14:41 51°17.899 2°39.93 11.5 20 6.7 102780 69
2004-02-10 14:42 51°17.886 2°39.941 10.9 17 6.7 102770 69
2004-02-10 14:43 51°17.892 2°39.981 10.8 11 6.7 102790 69
2004-02-10 14:44 51°17.903 2°40.027 11.9 5 6.7 102790 67
2004-02-10 14:45 51°17.894 2°39.951 15.3 353 6.7 102780 68
2004-02-10 14:46 51°17.963 2°39.797 15.2 315 6.7 102740 68
2004-02-10 14:47 51°18.009 2°39.728 13.7 7 6.7 102760 67
2004-02-10 14:48 51°17.989 2°39.704 10.4 29 6.7 102770 67
2004-02-10 14:49 51°17.99 2°39.752 10.8 51 6.7 102780 68
2004-02-10 14:50 51°17.999 2°39.82 11.6 83 6.7 102760 68
2004-02-10 14:51 51°17.986 2°39.893 13.1 59 6.7 102770 68
2004-02-10 14:52 51°17.964 2°39.861 10.6 330 6.7 102770 68
2004-02-10 14:53 51°18.082 2°39.861 11.3 284 6.8 102770 69
2004-02-10 14:54 51°18.308 2°39.922 9.8 285 6.8 102760 70
2004-02-10 14:55 51°18.543 2°40.068 7.9 277 6.8 102770 69
2004-02-10 14:56 51°18.778 2°40.228 8.8 272 6.8 102780 70
2004-02-10 14:57 51°19.003 2°40.385 10.4 276 6.8 102780 69
2004-02-10 14:58 51°19.237 2°40.542 10.8 273 6.8 102750 70
2004-02-10 14:59 51°19.473 2°40.693 9.3 276 6.7 102760 69
2004-02-10 15:00 51°19.709 2°40.855 13.8 270 6.7 102770 69
2004-02-10 15:01 51°19.942 2°41.004 8.6 268 6.8 102750 69
2004-02-10 15:02 51°20.178 2°41.162 8.7 281 6.8 102750 70
2004-02-10 15:03 51°20.415 2°41.312 9 260 6.8 102740 69
2004-02-10 15:04 51°20.499 2°41.517 11.3 132 6.8 102760 69
2004-02-10 15:05 51°20.451 2°41.632 11.5 66 6.8 102730 69
2004-02-10 15:06 51°20.418 2°41.646 11.7 18 6.8 102730 70
2004-02-10 15:07 51°20.412 2°41.61 14.2 3 6.8 102740 69
2004-02-10 15:08 51°20.403 2°41.55 11.6 358 6.8 102740 70
2004-02-10 15:09 51°20.413 2°41.563 13 358 6.8 102730 70
2004-02-10 15:10 51°20.432 2°41.596 11.9 343 6.8 102730 69
2004-02-10 15:11 51°20.457 2°41.636 10.7 344 6.8 102710 70
2004-02-10 15:12 51°20.48 2°41.663 11.2 340 6.8 102730 70
2004-02-10 15:13 51°20.499 2°41.666 9.6 354 6.9 102710 70
2004-02-10 15:14 51°20.508 2°41.672 12.3 16 6.9 102730 70
2004-02-10 15:15 51°20.513 2°41.694 12.3 16 6.8 102730 69
2004-02-10 15:16 51°20.516 2°41.714 13.7 9 6.8 102710 70
2004-02-10 15:17 51°20.521 2°41.718 14.3 3 6.8 102710 68
2004-02-10 15:18 51°20.526 2°41.703 13.1 8 6.8 102720 69
2004-02-10 15:19 51°20.528 2°41.704 12.8 11 6.8 102710 70
2004-02-10 15:20 51°20.528 2°41.726 12.5 29 6.8 102710 70
2004-02-10 15:21 51°20.525 2°41.761 14.4 37 6.8 102700 69
2004-02-10 15:22 51°20.524 2°41.807 11.9 45 6.7 102690 69
2004-02-10 15:23 51°20.521 2°41.864 14.7 57 6.8 102690 71
2004-02-10 15:24 51°20.515 2°41.92 13.9 58 6.7 102680 69
2004-02-10 15:25 51°20.487 2°41.949 14.3 30 6.8 102680 71
2004-02-10 15:26 51°20.477 2°41.801 19 359 6.8 102670 70
2004-02-10 15:27 51°20.471 2°41.634 17.2 5 6.9 102690 71
2004-02-10 15:28 51°20.447 2°41.583 12.8 23 6.9 102700 70
2004-02-10 15:29 51°20.448 2°41.597 13.6 18 6.9 102710 70
2004-02-10 15:30 51°20.456 2°41.625 11.9 17 6.9 102710 72
2004-02-10 15:31 51°20.409 2°41.575 16.3 14 6.9 102690 71
2004-02-10 15:32 51°20.287 2°41.416 18.9 33 6.9 102690 71
2004-02-10 15:33 51°20.148 2°41.318 15 32 6.9 102670 69
2004-02-10 15:34 51°20.088 2°41.265 14.3 41 6.9 102680 71
2004-02-10 15:35 51°20.065 2°41.25 11.9 16 6.9 102700 71
2004-02-10 15:36 51°20.067 2°41.275 13.9 22 6.9 102700 71
2004-02-10 15:37 51°20.066 2°41.307 12.6 20 6.9 102690 69
2004-02-10 15:38 51°20.066 2°41.311 15.2 2 6.9 102710 70
2004-02-10 15:39 51°20.071 2°41.3 12.5 3 6.9 102700 69
2004-02-10 15:40 51°20.083 2°41.297 13.7 351 6.9 102680 69
2004-02-10 15:41 51°20.094 2°41.271 14.9 8 6.9 102670 70
2004-02-10 15:42 51°20.09 2°41.242 14.6 11 7 102710 71
2004-02-10 15:43 51°20.094 2°41.234 13.7 2 6.9 102700 70
2004-02-10 15:44 51°20.103 2°41.237 12.5 9 7 102690 70
2004-02-10 15:45 51°20.107 2°41.243 12.7 12 7 102700 70
2004-02-10 15:46 51°20.108 2°41.253 13.6 27 7 102710 70
2004-02-10 15:47 51°20.104 2°41.274 12.5 33 7 102690 71
2004-02-10 15:48 51°20.101 2°41.308 12.7 41 7 102680 70
2004-02-10 15:49 51°20.092 2°41.305 12.2 20 7 102710 71
2004-02-10 15:50 51°20.08 2°41.3 15.2 26 7 102690 70
2004-02-10 15:51 51°20.073 2°41.311 13.9 23 7 102690 70
2004-02-10 15:52 51°20.062 2°41.318 15.3 24 7 102680 70
2004-02-10 15:53 51°19.98 2°41.204 18.1 35 7 102670 70
2004-02-10 15:54 51°19.862 2°41.069 16.6 41 7 102660 70
2004-02-10 15:55 51°19.755 2°40.995 15.7 30 7.1 102650 72
2004-02-10 15:56 51°19.71 2°40.92 14 17 7 102670 70
2004-02-10 15:57 51°19.698 2°40.886 13.5 18 7 102680 71
2004-02-10 15:58 51°19.701 2°40.902 11.9 40 7.1 102680 71
2004-02-10 15:59 51°19.704 2°40.94 11.8 44 7.1 102670 71
2004-02-10 16:00 51°19.695 2°40.967 10 28 7.1 102660 72
2004-02-10 16:01 51°19.685 2°40.956 14.5 26 7.1 102680 73
2004-02-10 16:02 51°19.679 2°40.964 13.8 38 7.1 102660 71
2004-02-10 16:03 51°19.661 2°40.965 13.8 25 7.1 102650 72
2004-02-10 16:04 51°19.674 2°40.879 13.7 354 7.1 102650 71
2004-02-10 16:05 51°19.682 2°40.847 11.1 26 7.1 102680 72
2004-02-10 16:06 51°19.685 2°40.865 13.6 23 7.1 102670 72
2004-02-10 16:07 51°19.693 2°40.902 10.5 35 7.1 102670 72
2004-02-10 16:08 51°19.693 2°40.928 15.1 26 7.1 102670 73
2004-02-10 16:09 51°19.692 2°40.94 13.9 26 7.1 102670 71
2004-02-10 16:10 51°19.697 2°40.941 12.2 354 7.1 102690 72
2004-02-10 16:11 51°19.719 2°40.945 14.7 341 7.1 102670 71
2004-02-10 16:12 51°19.739 2°40.956 13.1 359 7.1 102670 71
2004-02-10 16:13 51°19.75 2°40.964 13 20 7.1 102670 71
2004-02-10 16:14 51°19.689 2°40.947 17.8 88 7.1 102600 71
2004-02-10 16:15 51°19.588 2°41.164 10 109 7.2 102640 72
2004-02-10 16:16 51°19.476 2°41.498 9.4 105 7.2 102630 73
2004-02-10 16:17 51°19.354 2°41.832 9.5 112 7.2 102630 73
2004-02-10 16:18 51°19.239 2°42.167 12.2 96 7.2 102630 73
2004-02-10 16:19 51°19.122 2°42.495 12.3 98 7.2 102620 73
2004-02-10 16:20 51°18.999 2°42.827 8.7 106 7.1 102620 73
2004-02-10 16:21 51°18.883 2°43.165 11.3 99 7.2 102620 74
2004-02-10 16:22 51°18.772 2°43.509 11.2 103 7.2 102610 74
2004-02-10 16:23 51°18.663 2°43.85 9.6 114 7.1 102620 74
2004-02-10 16:24 51°18.561 2°44.198 8.3 110 7.1 102630 73
2004-02-10 16:25 51°18.46 2°44.549 9.2 116 7.1 102620 73
2004-02-10 16:26 51°18.352 2°44.894 9.5 107 7.1 102630 74
2004-02-10 16:27 51°18.25 2°45.236 10.4 116 7.1 102620 73
2004-02-10 16:28 51°18.155 2°45.588 8.5 102 7.1 102630 73
2004-02-10 16:29 51°18.059 2°45.94 9.4 103 7.1 102640 74
2004-02-10 16:30 51°17.964 2°46.291 10.1 108 7.1 102630 74
2004-02-10 16:31 51°17.858 2°46.633 10.5 109 7.1 102620 74
2004-02-10 16:32 51°17.769 2°46.987 10 115 7.1 102640 74
2004-02-10 16:33 51°17.674 2°47.331 10.2 109 7.1 102640 74
2004-02-10 16:34 51°17.581 2°47.667 8.5 107 7 102630 73
2004-02-10 16:35 51°17.482 2°48.001 8.8 101 7.1 102630 74
2004-02-10 16:36 51°17.381 2°48.35 9 105 7 102620 74
2004-02-10 16:37 51°17.289 2°48.701 10.9 107 7.1 102630 74
2004-02-10 16:38 51°17.173 2°49.029 12 104 7 102620 74
2004-02-10 16:39 51°17.034 2°49.323 13.7 88 7 102600 74
2004-02-10 16:40 51°16.882 2°49.599 14.5 99 7 102600 73
2004-02-10 16:41 51°16.731 2°49.874 10.4 81 7 102590 74
2004-02-10 16:42 51°16.575 2°50.148 12.4 92 7 102600 74
2004-02-10 16:43 51°16.418 2°50.413 13.1 86 7 102600 74
2004-02-10 16:44 51°16.263 2°50.682 11.4 90 7 102600 74
2004-02-10 16:45 51°16.126 2°50.982 11.2 94 7 102600 73
2004-02-10 16:46 51°15.989 2°51.292 12.2 93 7 102610 74
2004-02-10 16:47 51°15.859 2°51.613 9 96 7 102600 75
2004-02-10 16:48 51°15.73 2°51.928 12.9 93 7 102590 74
2004-02-10 16:49 51°15.601 2°52.239 11.6 100 7 102600 74
2004-02-10 16:50 51°15.464 2°52.543 11.9 101 7 102600 74
2004-02-10 16:51 51°15.355 2°52.771 11.4 101 6.9 102630 74
2004-02-10 16:52 51°15.228 2°53.047 12.6 92 7 102580 74
2004-02-10 16:53 51°15.086 2°53.335 10.4 94 7 102580 75
2004-02-10 16:54 51°14.958 2°53.646 11.2 96 7 102580 75
2004-02-10 16:55 51°14.824 2°53.957 14.7 99 6.9 102590 75
2004-02-10 16:56 51°14.68 2°54.263 12.1 85 6.9 102570 74
2004-02-10 16:57 51°14.543 2°54.564 12.8 97 7 102580 75
2004-02-10 16:58 51°14.426 2°54.898 12.6 100 6.9 102590 76